SL-14 DEB, 45652

Orbit data source: Space-Track

SL-14 DEB, 45652 is space debris in LEO originally from a launch on Thu, 15 Aug 1991 UTC launched from the Plesetsk Missile And Space Complex (PKMTR). Debris objects in space refer to the collection of defunct objects orbiting the Earth. Examples of debris include non-operational satellites, rocket bodies, and fragments generated from explosions, collisions, or faulty payload assembly.

Loading next visibility...
Identifier
45652, 1991-056CW
Orbit
LEO
Country
Flag of CISCIS
Related business
Manufacturer
Unknown
Mission
Spacecraft
Bus & Motor
Unknown
Mass
Unknown
Launch date (UTC)
1991-08-15 (35 years ago)
Launch vehicle
Unknown
Launch site
Plesetsk Missile And Space Complex (PKMTR)
Object type
Payload
Rocket body
Debris
Shape & HBR
Unknown shape, 0.1 m
Radar Cross Section
Medium (>0.1 m² and <1 m²)

Expand to show TLE details & history
Last TLE update: 3 days ago

TLE from 3 days ago
0 SL-14 DEB
1 45652U 91056CW  26170.57368367  .00000335  00000-0  74711-3 0  9998
2 45652  82.5524 118.6459 0033934  21.2919 338.9611 13.24523959299161
Epoch: 2026-06-19T13:46Z
TLE epoch observation values (Epoch: 2026-06-19T13:46:06.269Z)
Latitude
0.00003°
Longitude
4.31907°
Altitude
1,146.416 km
Speed
7.291 km/s
True Right ascension
07h 54m 35s
True Declination
0° 00' 00"
Sunlit
Object was in daylight at epoch
Visualization orbit readout
Latitude
Unknown
Longitude
Unknown
Altitude
Unknown
Speed
Unknown
Apparent Right ascension
Unknown
Apparent Declination
Unknown
Sunlit
N/A
Visualization observer readout
Local Sidereal Time
23:19:25
Azimuth
Unknown
Elevation
Unknown
Doppler factor
Unknown
Orbital elements
Apogee altitude
1,190.319 km
Perigee altitude
1,139.127 km
Semi-major axis
7,542.86 km
Eccentricity
0.00339
Inclination
82.5524°
RAAN
118.6459°
Arg. of periapsis
21.2919°
True anomaly
338.82095°
Mean anomaly
338.9611°
Eccentric anomaly
338.89108°
Mean motion
3.31313 °/min
Orbital period
108.66 mins
BSTAR
0.00074711
Loading maneuver chart data...
Computing Atmospheric mass density...
Loading historical data...
Loading historical data...
Loading historical data...
Loading historical data...
Loading historical data...
Loading historical data...
Loading historical data...

Documentation

Showing up to 5 results
|